Regional Weather Roundup
Issued by NWS

Home | Current Version | Previous Version | Graphics & Text | Print | Product List | Glossary On
Versions: 1 2 3 4 5 6 7 8 9 10 11 12 13 14 15 16 17 18 19 20 21 22 23 24 25 26 27 28 29 30 31 32 33 34 35 36 37 38 39 40 41 42 43 44 45 46 47 48 49 50
000
ASUS45 KBOI 071810
RWRID

IDAHO REGIONAL WEATHER ROUNDUP
NATIONAL WEATHER SERVICE BOISE ID
1100 AM MST SUN FEB 07 2016

NOTE: "FAIR" INDICATES FEW OR NO CLOUDS BELOW 12000 FEET
WITH NO SIGNIFICANT WEATHER AND/OR OBSTRUCTIONS TO VISIBILITY

IDZ012-014-071900-
SOUTHWEST IDAHO


CITY           SKY/WX    TMP DP  RH WIND       PRES   REMARKS
BOISE          SUNNY     36  32  85 CALM      30.64R
CALDWELL       SUNNY     36  31  82 CALM      30.65S
MOUNTAIN HOME  DRIZZLE   34  34 100 W6        30.63S WCI  29
$$

IDZ016-017-071900-
SOUTHCENTRAL IDAHO


CITY           SKY/WX    TMP DP  RH WIND       PRES   REMARKS
BURLEY         SUNNY     38  29  70 NW6       30.58R WCI  33
JEROME         SUNNY     30  27  88 NE8       30.59R FOG     WCI  22
TWIN FALLS     SUNNY     42  31  64 SW9       30.58R
$$

IDZ019>023-071900-
SOUTHEAST IDAHO


CITY           SKY/WX    TMP DP  RH WIND       PRES   REMARKS
IDAHO FALLS    CLOUDY    23  21  92 NW12      30.59R FOG     WCI  12
POCATELLO      CLOUDY    27  20  75 W6        30.60R WCI  20
REXBURG        CLOUDY    22  20  92 CALM      30.58R
$$

IDZ006-010-011-018-031-032-071900-
CENTRAL IDAHO MOUNTAINS


CITY           SKY/WX    TMP DP  RH WIND       PRES   REMARKS
MCCALL         FOG       22  21  96 S5        30.57R VSB 3/4 WCI  16
HAILEY         MOSUNNY   28  18  64 W7        30.56R WCI  21
STANLEY          N/A     24  12  60 CALM      30.58R
SALMON         SUNNY     18  12  79 CALM      30.62S
CHALLIS        SUNNY     20  13  74 CALM      30.58R
$$

IDZ002-004-006-007-026-071900-
NORTHERN IDAHO


CITY           SKY/WX    TMP DP  RH WIND       PRES   REMARKS
LEWISTON       SUNNY     38  30  73 E5        30.64R WCI  34
LOWELL           N/A     35  31  85 CALM      30.70R
COEUR D`ALENE  SUNNY     34  30  86 CALM      30.59R
MULLAN PASS    SUNNY     26  20  77 VRB3      30.48R
$$



USA.gov is the U.S. government's official web portal to all federal, state and local government web resources and services.